DateTimeUTC,F1_A11,F1_S11,BsB_S11,BsG_S11,BsR_S11,BbsB_S11,BbsG_S11,BbsR_S11,BaB_A11,BaG_A11,BaR_A11,Tu_S11,T_S11,Uu_S11,U_S11,P_S11,T1_A11
2021-05-28T12:00:00Z,00000200,20000000,,,,,,,-000.16,0000.19,0000.19,18.3,24.7,09.3,06.3,0674.1,30.9
2021-05-28T12:01:00Z,00000200,20000000,,,,,,,0000.12,-000.38,-000.42,18.3,24.7,09.3,06.3,0674.1,30.9
2021-05-28T12:02:00Z,00000200,20000000,,,,,,,0000.10,0000.41,0000.42,18.3,24.7,09.1,06.2,0674.1,30.9
2021-05-28T12:03:00Z,00000200,60000000,,,,,,,0000.07,-000.04,0000.25,18.3,24.7,09.0,06.1,0674.1,30.9
2021-05-28T12:04:00Z,00000200,40000000,0000.89,0001.10,0000.63,0000.59,0000.08,-000.08,0000.67,0001.17,0000.41,18.4,24.5,09.1,06.2,0675.0,30.9
2021-05-28T12:05:00Z,00000200,00000000,0001.78,0001.04,0000.44,0000.06,0000.12,0000.14,0000.42,-000.05,0000.27,18.5,24.5,09.1,06.3,0675.2,30.9
2021-05-28T12:06:00Z,00000200,00000000,0001.05,0001.21,0000.50,-000.11,0000.08,0000.01,0000.58,0000.47,0000.10,18.5,24.5,09.1,06.3,0675.2,30.9
2021-05-28T12:07:00Z,00000200,00000000,0001.27,0001.45,0000.26,0000.34,0000.10,-000.14,0000.58,0000.76,0000.42,18.5,24.5,09.2,06.4,0675.2,30.9
2021-05-28T12:08:00Z,00000200,00000000,0001.30,0001.18,0000.40,0000.11,-000.01,0000.30,0000.48,0000.31,0000.53,18.5,24.5,09.2,06.4,0675.2,30.9
2021-05-28T12:09:00Z,00000200,00000000,0001.57,0001.27,0000.58,-000.22,0000.10,-000.05,0000.42,0000.24,0000.34,18.5,24.5,09.2,06.3,0675.2,30.9
2021-05-28T12:10:00Z,00000200,00000000,0001.79,0001.37,0000.51,0000.49,0000.08,0000.13,0001.02,0000.90,0000.60,18.5,24.5,09.2,06.4,0675.3,30.9
2021-05-28T12:11:00Z,00000200,00000000,0000.93,0001.33,0000.77,0000.49,0000.25,0000.50,0000.22,0000.35,0000.22,18.5,24.5,09.3,06.5,0675.2,30.9
2021-05-28T12:12:00Z,00000200,00000000,0001.41,0001.35,0000.56,0000.32,0000.42,0000.19,0000.28,0000.79,0000.12,18.5,24.5,09.2,06.3,0675.1,30.9
2021-05-28T12:13:00Z,00000200,00000000,0002.04,0001.06,0000.50,0000.86,-000.06,-000.33,0000.90,0000.40,0000.71,18.5,24.5,09.1,06.3,0675.1,30.9
2021-05-28T12:14:00Z,00000200,00000000,0001.38,0001.43,0000.56,0000.57,0000.13,0000.07,0000.43,0000.23,0000.13,18.5,24.5,09.1,06.3,0675.1,30.9
2021-05-28T12:15:00Z,00000200,00000000,0001.10,0000.92,0000.57,0000.36,-000.18,0000.09,0000.76,0000.60,0000.55,18.5,24.5,09.1,06.3,0675.1,30.9
2021-05-28T12:16:00Z,00000200,00000000,0001.42,0000.76,0000.59,0000.32,0000.10,0000.18,0000.35,0000.48,0000.15,18.6,24.5,09.0,06.2,0675.0,30.9
2021-05-28T12:17:00Z,00000200,00000000,0000.78,0001.19,0000.51,0000.46,0000.45,0000.27,0000.83,0000.59,0000.76,18.6,24.5,09.1,06.3,0675.1,30.9
2021-05-28T12:18:00Z,00000200,00000000,0001.49,0000.91,0000.64,0000.62,0000.11,0000.11,0000.41,0000.68,0000.33,18.6,24.5,09.0,06.2,0675.1,30.9
2021-05-28T12:19:00Z,00000200,00000000,0001.95,0001.45,0000.81,0000.51,0000.16,0000.19,0000.46,0000.46,0000.28,18.6,24.5,09.0,06.2,0675.0,30.9
2021-05-28T12:20:00Z,00000200,00000000,0001.08,0001.24,0000.81,0000.01,0000.06,0000.01,0001.01,0000.85,0000.42,18.6,24.6,08.9,06.2,0675.1,30.9
2021-05-28T12:21:00Z,00000200,00000000,0002.26,0001.15,0000.34,0000.18,0000.11,0000.16,0000.34,0000.22,0000.38,18.6,24.6,09.1,06.3,0675.1,30.9
2021-05-28T12:22:00Z,00000200,00000000,0001.41,0001.00,0000.57,0000.74,0000.30,-000.03,0000.56,0000.59,0000.35,18.6,24.6,09.0,06.2,0675.1,30.9
2021-05-28T12:23:00Z,00000200,00000000,0001.76,0001.42,0000.69,0000.27,0000.40,0000.03,0000.85,0000.31,0000.38,18.6,24.6,08.9,06.2,0675.1,30.9
2021-05-28T12:24:00Z,00000200,00000000,0001.47,0001.29,0000.64,0000.66,0000.30,0000.09,0000.30,0000.80,0000.79,18.6,24.6,08.9,06.2,0675.2,30.9
2021-05-28T12:25:00Z,00000200,00000000,0001.40,0001.28,0000.59,0000.41,0000.14,0000.06,0000.78,0000.44,0000.18,18.6,24.6,08.8,06.1,0675.1,30.9
2021-05-28T12:26:00Z,00000200,00000000,0001.94,0001.10,0000.96,0000.47,0000.21,0000.19,0000.58,0000.60,0000.61,18.6,24.6,08.8,06.1,0675.1,30.9
2021-05-28T12:27:00Z,00000200,00000000,0000.74,0001.23,0000.71,0000.46,0000.20,0000.08,0000.22,0000.39,0000.32,18.6,24.6,08.8,06.1,0675.2,30.9
2021-05-28T12:28:00Z,00000200,00000000,0002.08,0001.12,0000.67,0000.36,0000.06,-000.01,0000.98,0000.98,0000.43,18.6,24.6,08.9,06.2,0675.1,30.9
2021-05-28T12:29:00Z,00000200,00000000,0000.94,0001.24,0000.59,0000.48,0000.48,0000.09,0000.59,0000.35,0000.62,18.6,24.6,08.9,06.2,0675.1,30.9
2021-05-28T12:30:00Z,00000200,00000000,0001.79,0001.42,0000.69,0000.10,0000.39,0000.05,0000.56,0000.58,0000.33,18.7,24.6,09.1,06.3,0675.1,30.9
2021-05-28T12:31:00Z,00000200,00000000,0001.85,0001.26,0000.59,0000.14,0000.21,-000.04,0000.76,0000.34,0000.56,18.6,24.6,09.0,06.2,0675.1,30.9
2021-05-28T12:32:00Z,00000200,00000000,0001.13,0001.13,0000.83,0000.44,0000.10,0000.10,0000.66,0000.61,0000.11,18.7,24.6,08.8,06.1,0675.1,30.9
2021-05-28T12:33:00Z,00000200,00000000,0001.41,0001.07,0000.93,0000.59,-000.12,0000.32,0000.49,0000.69,0000.52,18.7,24.6,08.8,06.2,0675.2,30.9
2021-05-28T12:34:00Z,00000200,00000000,0001.64,0001.02,0000.77,0000.25,0000.18,-000.01,0000.70,0000.60,0000.55,18.7,24.6,08.8,06.1,0675.1,30.9
2021-05-28T12:35:00Z,00000200,00000000,0001.39,0001.30,0000.48,0000.28,0000.00,0000.36,0000.55,0000.36,0000.49,18.7,24.6,08.6,06.0,0675.0,30.9
2021-05-28T12:36:00Z,00000200,00000000,0001.30,0001.21,0000.80,0000.13,0000.56,0000.15,0000.75,0000.80,0000.24,18.7,24.6,08.7,06.1,0674.9,30.9
2021-05-28T12:37:00Z,00000200,00000000,0002.34,0000.99,0000.62,0000.16,0000.17,0000.21,0000.50,0000.60,0000.75,18.7,24.6,08.8,06.1,0675.0,30.9
2021-05-28T12:38:00Z,00000200,00000000,0001.01,0001.36,0000.63,0000.54,0000.14,0000.27,0000.48,0000.40,0000.04,18.7,24.6,08.9,06.2,0675.0,30.9
2021-05-28T12:39:00Z,00000200,00000000,0002.25,0001.41,0000.67,-000.23,0000.20,0000.16,0000.81,0000.60,0000.68,18.7,24.6,08.8,06.1,0675.1,30.9
2021-05-28T12:40:00Z,00000200,00000000,0001.85,0001.24,0000.66,-000.09,0000.19,-000.07,0000.70,0000.83,0000.49,18.7,24.6,08.9,06.2,0675.1,30.9
2021-05-28T12:41:00Z,00000200,00000000,0002.62,0001.32,0000.95,-000.07,0000.03,0000.46,0000.29,0000.18,0000.38,18.7,24.6,08.8,06.1,0674.9,30.9
2021-05-28T12:42:00Z,00000200,00000000,0001.47,0001.31,0000.62,0000.38,0000.02,-000.04,0000.87,0000.46,0000.55,18.7,24.6,08.9,06.2,0675.0,30.9
2021-05-28T12:43:00Z,00000200,00000000,0001.90,0001.08,0000.81,0000.70,0000.35,0000.07,0000.57,0000.63,0000.10,18.7,24.6,08.8,06.1,0674.9,30.9
2021-05-28T12:44:00Z,00000200,00000000,0001.73,0001.21,0000.68,0000.53,-000.05,0000.01,0000.76,0001.01,0000.29,18.7,24.6,08.8,06.1,0675.0,30.9
2021-05-28T12:45:00Z,00000200,00000000,0001.26,0001.58,0000.92,0000.60,0000.18,0000.18,0000.69,0000.50,0000.75,18.7,24.6,08.8,06.1,0674.9,30.9
2021-05-28T12:46:00Z,00000200,00000000,0001.48,0001.26,0000.88,0001.28,0000.20,0000.27,0000.33,0000.29,0000.70,18.7,24.6,08.8,06.1,0675.0,30.9
2021-05-28T12:47:00Z,00000200,00000000,0001.83,0001.36,0000.60,-000.04,0000.00,0000.24,0000.86,0000.96,0000.27,18.7,24.6,08.8,06.1,0674.9,30.9
2021-05-28T12:48:00Z,00000200,00000000,0001.86,0001.43,0000.45,0000.29,0000.23,0000.03,0000.51,0000.26,0000.34,18.7,24.6,08.8,06.1,0675.0,30.9
2021-05-28T12:49:00Z,00000200,00000000,0002.01,0001.26,0000.56,0000.60,0000.16,-000.10,0000.61,0000.62,0000.44,18.7,24.6,08.8,06.1,0675.0,30.9
2021-05-28T12:50:00Z,00000200,00000000,0001.47,0001.18,0000.79,0000.49,0000.16,0000.36,0000.40,0000.61,0000.28,18.7,24.6,08.7,06.1,0674.9,30.9
2021-05-28T12:51:00Z,00000200,00000000,0001.74,0001.28,0000.64,0000.74,0000.40,0000.30,0001.13,0000.81,0000.63,18.7,24.6,08.7,06.1,0675.0,30.9
2021-05-28T12:52:00Z,00000200,00000000,0001.39,0001.02,0000.65,0000.22,0000.10,-000.06,0000.56,0000.22,0000.51,18.7,24.6,08.8,06.1,0675.1,30.9
2021-05-28T12:53:00Z,00000200,00000000,0001.84,0001.05,0000.76,0000.12,0000.19,0000.35,0000.39,0000.71,0000.54,18.7,24.6,08.9,06.2,0675.0,30.9
2021-05-28T12:54:00Z,00000200,00000000,0001.26,0001.33,0000.96,0000.80,0000.23,0000.22,0000.68,0000.20,0000.22,18.7,24.6,08.7,06.1,0675.0,30.9
2021-05-28T12:55:00Z,00000200,00000000,0001.49,0001.09,0000.52,0000.61,0000.24,-000.03,0000.65,0000.60,0000.64,18.7,24.6,08.7,06.1,0675.0,30.9
2021-05-28T12:56:00Z,00000200,00000000,0001.62,0001.38,0000.51,0000.13,0000.04,0000.09,0000.52,0000.71,0000.10,18.7,24.6,08.9,06.2,0675.0,30.9
2021-05-28T12:57:00Z,00000200,40000000,,,,,,,0000.56,0000.42,0000.60,18.8,24.7,08.5,05.9,0675.1,30.9
2021-05-28T12:58:00Z,00000200,60000000,,,,,,,-000.17,-000.17,-000.08,18.6,24.8,08.8,06.0,0674.1,30.9
2021-05-28T12:59:00Z,00000200,20000000,,,,,,,0000.10,0000.28,-000.02,18.6,24.9,08.9,06.1,0674.1,30.9
